#timestamp,LO_Frequency,Hit,StdDev 
1520323215.1,286047001.0,N
1520323216.0,286047001.0,N
1520323235.8,286047001.1,N
1520323255.7,286046998.5,N
1520323275.5,286047000.8,N
1520323295.3,286046998.1,N
1520323315.2,286047001.9,N
1520323335.0,286047002.1,N
1520323335.9,286047002.1,N
1520323355.8,286047000.7,N
1520323375.6,286047001.2,N
1520323395.4,286046998.5,N
1520323415.3,286047000.9,N
1520323435.1,286046999.7,N
1520323455.8,286047000.0,N
1520323475.7,286047001.0,N
1520323495.5,286047000.8,N
1520323515.4,286046998.2,N
1520323535.2,286046998.2,N
1520323555.0,286047001.1,N
1520323555.9,286047001.1,N
1520323575.8,286047002.4,N
1520323595.6,286047002.8,N
1520323615.5,286046998.9,N
1520323635.3,286047000.7,N
1520323655.1,286046998.1,N
1520323675.9,286047000.5,N
1520323695.7,286047001.1,N
1520323715.5,286047002.5,N
1520323735.4,286047001.7,N
1520323755.2,286047004.1,N
1520323775.1,286047003.3,N
1520323776.0,286047003.3,N
1520323795.8,286047005.5,Y
1520323815.6,286047005.9,P
1520323835.5,286046999.8,N
1520323855.3,286046999.8,N
1520323875.1,286046998.2,N
1520323895.9,286046998.5,N
1520323915.7,286047000.4,N
1520323935.6,286047000.1,N
1520323955.4,286047001.9,N
1520323975.2,286047002.0,N
1520323995.1,286047002.0,N
1520323996.0,286047002.0,N
1520324015.8,286047004.4,N
1520324035.7,286047002.0,N
1520324055.5,286047001.9,N
1520324075.3,286047001.8,N
1520324095.2,286047003.9,N
1520324115.9,286047003.3,N
1520324135.7,286047001.4,N
1520324155.6,286047001.4,N
1520324175.4,286047003.0,N
1520324195.3,286047005.7,Y
1520324215.1,286047001.3,P
1520324216.0,286047001.3,P
1520324235.8,286047002.7,P
1520324255.7,286046999.8,N
1520324275.5,286047001.5,N
1520324295.4,286047002.2,N
1520324315.2,286047001.8,N
1520324335.0,286047002.4,N
1520324335.9,286047002.4,N
1520324355.8,286047000.7,N
1520324375.6,286046998.4,N
1520324395.5,286046999.1,N
1520324415.3,286046998.9,N
1520324435.1,286046999.4,N
1520324455.9,286046997.2,N
1520324475.7,286046995.2,Y
1520324495.5,286046994.6,P
1520324515.4,286046992.1,N
1520324535.2,286046991.9,N
1520324555.1,286046994.5,N
1520324556.0,286046994.5,N
1520324575.8,286046991.9,N
1520324595.6,286046992.7,N
1520324615.5,286046992.8,N
1520324635.3,286046992.0,Y
1520324655.2,286047001.0,P
1520324675.9,286047000.9,N
1520324695.7,286047000.1,N
1520324715.6,286047001.1,N
1520324735.4,286046998.5,N
1520324755.2,286047000.6,N
1520324775.1,286047000.6,N
1520324776.0,286047000.6,N
1520324795.8,286046999.0,N
1520324815.7,286046998.8,N
1520324835.5,286046999.5,N
1520324855.3,286047000.3,N
1520324875.2,286047000.1,N
1520324895.0,286047001.1,N
1520324895.9,286047001.1,N
1520324915.7,286046999.3,N
1520324935.6,286046999.2,N
1520324955.4,286046999.0,N
1520324975.3,286046997.5,N
1520324995.1,286046999.3,N
1520324996.0,286046999.3,N
1520325015.8,286046999.1,N
1520325035.7,286046996.9,N
1520325055.5,286046997.9,N
1520325075.4,286046993.5,Y
1520325095.2,286046993.4,P
1520325115.0,286046995.8,N
1520325115.9,286046995.8,N
1520325135.8,286046997.4,N
1520325155.6,286046996.9,N
1520325175.4,286046997.8,N
1520325195.3,286046995.0,N
1520325215.1,286046998.7,N
1520325235.9,286047001.0,N
1520325255.7,286047001.0,N
1520325275.5,286046998.7,N
1520325295.4,286046998.9,N
1520325315.2,286047001.2,N
1520325335.0,286047000.4,N
1520325335.9,286047000.4,N
1520325355.8,286046998.1,N
1520325375.6,286046998.7,N
1520325395.5,286046998.4,N
1520325415.3,286046998.2,N
1520325435.1,286046998.8,N
1520325455.9,286046999.4,N
1520325475.7,286046999.2,N
1520325495.5,286046996.9,N
1520325515.4,286046997.7,N
1520325535.2,286046995.2,N
1520325555.1,286046996.2,N
1520325556.0,286046996.2,N
1520325575.8,286046994.0,Y
1520325595.6,286046995.4,P
1520325615.5,286046999.5,N
1520325635.3,286046998.5,N
1520325655.1,286047000.8,N
1520325675.9,286046998.4,N
1520325695.7,286046999.5,N
1520325715.6,286046996.8,N
1520325735.4,286046998.9,N
1520325755.2,286046999.1,N
1520325775.1,286046996.8,N
1520325776.0,286046996.8,N
1520325795.8,286046995.2,Y
1520325815.7,286046999.3,P
1520325835.5,286047000.9,N
1520325855.3,286047002.3,N
1520325875.2,286047000.2,N
1520325895.0,286046999.7,N
1520325895.9,286046999.7,N
1520325915.7,286046999.9,N
1520325935.6,286047000.2,N
1520325955.4,286047000.7,N
1520325975.3,286047000.6,N
1520325995.1,286047000.9,N
1520325996.0,286047000.9,N
1520326015.8,286047000.2,N
1520326035.7,286047000.4,N
1520326055.5,286047002.2,N
1520326075.3,286047002.1,N
1520326095.2,286047004.4,Y
1520326115.0,286047002.9,P
1520326115.9,286047002.9,N
1520326135.8,286047002.5,N
1520326155.6,286046999.9,N
1520326175.4,286046999.5,N
1520326195.3,286046995.3,Y
1520326215.1,286046996.0,P
1520326235.9,286046995.6,N
1520326255.7,286046997.7,N
1520326275.5,286046996.8,N
1520326295.4,286046998.0,N
1520326315.2,286046997.0,N
1520326335.0,286046997.6,N
1520326335.9,286046997.6,N
1520326355.8,286046995.7,N
1520326375.6,286046993.7,Y
1520326395.5,286046998.9,P
1520326415.3,286046999.0,N
1520326435.1,286046999.3,N
1520326455.9,286046997.1,Y
1520326475.7,286046999.0,P
1520326495.5,286046998.9,P
1520326515.4,286046999.1,P
1520326535.2,286046999.6,N
1520326555.1,286046998.3,Y
1520326556.0,286046998.3,P
1520326575.8,286046998.4,P
1520326595.6,286046996.9,P
1520326615.5,286046998.6,N
1520326635.3,286046998.1,N
1520326655.2,286046998.5,N
1520326675.9,286047000.4,N
1520326695.7,286047001.1,N
1520326715.6,286047000.9,N
1520326735.4,286046998.9,N
1520326755.2,286046999.4,N
1520326775.1,286046997.7,N
1520326776.0,286046997.7,N
1520326795.8,286046995.0,Y
